Theta_e
324 324 327 326 324 316 322 323 321 324 324 324 331 328 329 332 333 333 337 333 324 316 313 316 331 334 330 327 322 329 327 320 314 313 312 311 310 309 308 308 308 308 308 309 310 310 312 314 315
322 324 328 327 323 319 320 317 324 322 326 328 329 330 330 332 337 337 336 335 321 312 312 315 327 329 327 326 319 319 317 314 312 312 311 311 310 310 310 310 311 310 308 309 310 310 311 313 315
322 326 327 320 315 322 317 318 321 323 328 325 328 328 330 331 336 336 337 336 327 313 312 317 324 319 317 318 315 315 315 314 313 312 311 311 310 310 310 323 325 317 309 309 309 310 311 312 314
321 327 324 322 325 320 317 319 321 321 323 324 328 329 332 332 334 336 337 336 331 316 312 317 327 330 329 325 320 317 315 314 314 312 311 311 310 310 310 310 312 323 310 309 309 309 310 311 312
322 326 324 323 322 320 315 320 321 320 320 324 326 328 334 334 337 337 337 336 333 319 313 315 325 328 329 326 324 321 316 313 313 311 311 310 310 310 310 310 311 311 310 310 310 310 310 310 311
323 323 326 327 323 320 319 322 322 320 320 324 327 331 334 337 337 337 337 336 332 322 313 312 319 328 330 328 326 322 318 314 312 312 311 311 310 310 310 310 310 311 310 310 310 310 310 310 310
321 321 325 325 324 322 321 322 319 318 321 323 327 327 330 335 337 338 337 336 332 324 313 312 314 322 327 329 326 319 316 316 315 316 314 314 312 311 311 311 311 311 311 311 311 311 311 311 311
325 320 325 323 323 321 319 321 321 320 320 324 325 323 326 330 335 338 337 337 334 328 316 313 311 314 319 321 319 316 316 316 319 320 319 318 317 314 313 312 312 312 312 312 311 311 311 311 311
324 321 324 324 321 322 319 322 321 322 324 326 325 325 323 329 335 338 337 338 336 330 319 314 312 311 311 313 313 313 314 314 315 318 319 317 314 313 312 312 313 313 313 313 312 312 312 312 312
317 317 322 321 321 324 320 322 323 325 326 327 328 327 324 329 334 337 337 334 333 329 318 317 317 316 314 312 312 312 312 312 313 314 316 315 314 313 313 312 312 312 313 312 312 313 313 313 312
317 315 316 322 324 324 323 322 324 325 325 325 326 326 324 330 334 336 337 335 329 324 321 322 322 321 321 319 317 316 315 314 313 313 312 313 312 312 312 312 312 312 314 315 315 315 314 314 314
317 316 317 321 322 322 320 322 323 325 325 326 326 326 321 328 333 335 335 335 335 332 330 330 328 326 325 325 325 323 321 320 318 316 315 314 313 313 313 313 313 314 314 315 316 316 316 316 316
315 316 318 320 320 322 323 322 322 324 325 327 326 326 322 324 328 330 329 329 330 331 331 330 330 330 329 328 327 326 325 324 324 322 320 319 318 317 317 316 316 316 317 317 318 319 319 319 320
315 317 317 319 319 320 322 322 323 324 325 327 327 326 324 323 324 327 329 327 327 329 329 330 330 329 328 325 324 324 324 323 324 323 322 322 321 320 320 320 320 321 321 322 322 322 322 322 322
317 317 316 317 318 318 318 317 322 323 325 327 328 328 327 326 326 326 326 325 326 327 328 330 330 330 329 328 327 326 323 321 320 319 320 320 320 320 322 324 325 325 326 326 326 325 325 324 324
316 314 317 315 317 317 313 314 311 321 323 326 328 329 329 328 328 328 329 327 326 327 327 328 329 328 328 327 327 326 326 324 322 322 323 322 323 324 325 326 326 327 328 328 328 328 328 328 327
314 316 316 317 315 317 313 312 311 315 318 321 326 328 329 329 329 329 329 328 327 326 325 326 327 327 328 329 329 327 326 324 323 324 324 324 325 325 325 325 325 326 327 328 329 329 328 328 327
317 316 314 316 315 317 316 314 312 315 317 316 319 323 326 328 329 329 329 329 329 329 330 330 330 330 330 330 331 330 330 329 329 328 328 327 327 326 326 324 324 326 327 327 327 327 327 327 327
313 313 313 312 314 317 315 315 314 314 314 315 317 317 319 322 324 324 324 326 328 329 330 331 331 331 331 331 331 331 330 330 329 328 327 328 325 324 323 322 324 326 327 325 327 327 326 326 327
314 312 311 314 313 314 311 312 310 311 313 316 316 317 317 317 318 319 318 318 322 326 328 329 330 331 331 331 331 331 331 331 330 330 329 325 322 323 323 324 324 326 327 327 326 325 326 325 325
313 311 311 312 312 309 308 308 307 307 309 312 314 315 315 315 314 315 317 317 317 317 317 317 317 317 318 324 329 330 331 331 330 330 328 322 323 324 324 323 323 325 327 327 327 325 325 325 325
315 312 311 312 311 312 306 305 305 305 304 303 308 309 310 310 310 311 311 314 316 316 315 315 314 314 314 314 314 316 320 325 326 328 327 322 320 320 322 321 322 324 327 330 326 326 325 326 324
313 311 311 310 309 310 309 308 305 303 305 304 304 307 308 308 310 310 310 310 310 311 311 311 310 311 312 312 313 314 316 317 318 319 318 317 319 318 320 320 321 322 322 325 326 324 327 325 324
310 311 311 309 308 309 309 308 306 305 305 306 308 309 309 309 310 311 311 311 311 311 311 311 311 311 311 311 311 312 313 314 315 314 313 315 316 318 321 319 319 322 324 325 323 321 323 322 322
311 313 315 316 315 314 303 307 307 305 302 304 305 309 310 310 310 311 311 312 312 312 311 311 311 311 311 311 311 311 310 311 311 312 313 315 316 320 321 318 319 323 323 323 322 320 320 318 316
310 312 314 316 307 305 304 306 305 304 306 307 307 310 310 311 311 311 311 312 312 312 312 312 313 313 313 314 314 312 311 311 311 312 314 315 318 319 317 319 323 323 322 321 321 319 315 312 309
311 311 307 307 301 306 305 304 304 305 305 306 307 309 310 310 310 311 311 312 312 312 312 312 312 312 312 312 312 314 315 315 313 312 313 314 316 318 320 322 322 321 320 318 313 309 307 307 306
309 308 311 308 306 306 303 304 305 305 307 307 306 308 309 309 310 311 311 310 309 308 308 308 309 310 310 310 309 309 310 313 315 317 317 318 319 320 321 320 319 315 310 307 307 306 306 305 304
310 310 309 309 307 306 303 303 300 303 304 306 306 308 310 311 311 310 309 308 307 307 306 306 307 307 308 309 310 309 308 308 309 312 315 317 317 317 316 313 309 307 306 306 305 305 304 304 303
309 310 308 308 306 306 307 306 304 301 302 304 307 308 310 310 309 309 308 307 306 305 305 305 305 305 306 307 308 309 309 308 307 307 307 308 308 307 307 306 306 306 306 305 305 305 304 302 301
Wind_Speed
12 8 2 2 4 5 1 2 2 2 1 3 11 6 7 3 4 3 9 24 21 22 22 23 21 17 16 13 13 13 9 8 6 6 5 5 5 6 6 7 7 7 7 7 7 6 6 6 6
12 6 2 3 4 3 5 2 5 3 6 16 12 9 4 2 3 6 23 21 21 20 20 23 21 18 17 14 11 11 9 7 5 5 5 5 5 6 6 5 7 7 7 7 7 6 5 4 4
8 3 2 4 3 4 5 4 5 4 15 3 5 3 4 5 4 17 22 22 22 20 20 21 20 17 15 13 11 10 8 6 5 4 5 5 5 5 4 7 4 7 7 6 6 5 4 3 2
5 1 4 4 4 4 4 4 6 8 4 4 7 5 4 3 6 18 21 22 21 18 19 19 17 16 14 11 11 10 8 7 6 5 5 5 5 4 4 3 5 4 5 4 5 4 4 2 2
2 2 3 2 3 2 3 4 10 5 5 5 5 5 2 8 11 19 21 21 21 18 18 18 17 16 15 13 11 8 6 6 7 6 5 4 3 3 3 3 2 1 1 2 2 2 2 1 1
2 2 3 2 3 2 2 7 5 4 5 7 5 7 5 11 11 19 20 21 21 18 18 18 18 17 16 14 12 8 7 7 7 6 5 4 3 3 3 2 1 1 1 1 1 2 2 2 3
5 4 3 2 3 1 5 9 5 7 5 4 7 5 5 14 14 18 19 18 19 17 17 18 18 18 16 14 12 9 7 6 6 4 4 3 3 4 4 4 3 3 3 3 3 4 5 5 5
3 4 4 3 3 4 5 10 4 9 5 6 6 4 4 19 18 20 20 18 20 19 18 17 17 18 17 16 13 11 10 7 6 5 4 4 4 3 4 5 5 5 6 6 6 6 6 7 8
4 4 3 4 6 3 6 4 4 6 9 7 7 3 3 20 22 23 23 21 21 21 19 18 17 16 16 15 14 13 12 10 9 8 8 7 5 4 4 5 6 7 7 7 7 8 9 9 9
3 4 8 4 5 2 3 3 11 5 6 6 6 6 5 23 25 27 27 25 25 24 22 19 17 15 15 15 15 14 13 11 11 10 10 9 8 7 8 8 8 8 8 8 8 9 11 12 12
4 5 4 4 3 3 3 4 7 9 3 9 12 10 14 23 25 26 25 23 22 21 21 19 18 16 15 14 14 14 14 13 13 12 11 11 11 11 11 11 11 10 10 10 11 11 12 12 13
4 4 3 3 1 4 5 7 5 11 3 6 9 10 18 23 25 25 24 21 20 21 20 18 17 17 17 16 16 15 15 14 14 12 13 13 12 13 13 13 12 13 12 12 12 13 12 12 13
3 4 3 2 2 2 5 3 5 10 3 3 10 14 19 20 21 20 18 17 17 19 18 16 17 17 17 18 18 18 17 16 14 14 14 14 14 14 14 14 14 14 14 14 14 15 15 14 14
6 4 3 1 1 2 3 2 5 4 9 6 11 16 19 19 18 19 20 19 19 18 18 16 16 16 16 16 16 18 17 16 16 15 14 15 15 14 14 14 14 14 14 15 16 17 17 17 18
4 4 2 3 2 1 3 2 5 5 8 8 13 17 19 19 18 19 17 17 17 17 17 19 18 17 18 18 17 17 16 17 17 16 15 14 15 14 14 14 14 14 14 16 17 17 18 19 19
4 4 3 1 4 1 4 6 3 6 10 11 12 16 19 21 20 18 17 17 18 20 20 18 19 19 19 19 18 18 18 18 18 17 15 15 15 16 17 18 17 16 16 17 18 19 20 20 20
5 3 4 2 4 2 3 7 3 5 8 10 12 15 18 20 21 20 18 17 18 18 19 19 20 19 18 18 17 17 17 19 18 18 18 17 18 19 20 21 20 18 20 20 20 21 21 23 22
6 4 4 4 2 2 3 7 2 5 2 6 13 15 17 19 20 17 18 19 18 18 18 18 18 18 18 19 20 19 18 18 18 18 18 17 18 19 21 24 23 21 22 22 22 23 22 23 23
5 3 3 1 2 3 5 7 8 9 8 11 15 16 18 20 18 17 18 18 20 22 22 21 20 19 21 21 21 21 21 20 19 19 18 18 19 20 21 23 23 21 22 21 22 23 23 25 24
3 4 2 1 2 2 2 9 7 8 10 19 20 20 21 21 20 18 17 15 15 17 18 20 22 24 24 24 25 25 25 24 24 23 21 20 21 21 21 22 22 21 21 20 20 21 24 23 23
1 4 3 1 1 3 3 6 4 4 10 20 25 26 25 26 23 20 17 17 15 14 14 14 15 16 18 21 24 28 30 30 30 28 25 22 21 20 20 20 21 22 22 21 20 20 20 23 20
4 4 5 5 2 3 2 5 5 1 7 7 23 19 21 19 21 25 23 23 22 20 20 21 21 22 23 24 25 27 29 31 31 29 26 24 22 23 23 20 20 20 20 19 20 17 19 19 18
2 5 5 3 4 2 2 2 7 3 5 9 3 5 10 13 9 7 13 17 17 16 17 18 19 21 21 21 21 22 23 24 25 25 24 23 23 22 21 19 19 20 21 19 18 13 16 19 20
7 6 7 4 3 2 4 4 5 4 5 2 3 4 2 6 8 9 8 6 6 8 10 12 14 15 17 19 20 21 22 23 24 24 24 21 21 20 19 17 17 17 16 16 15 14 14 18 19
2 5 2 2 1 5 1 1 6 10 5 3 6 2 6 8 9 7 5 4 3 3 3 3 4 5 8 10 12 16 20 22 21 19 17 17 16 16 17 16 14 14 14 15 15 15 13 15 16
4 4 6 5 3 2 2 6 6 5 6 10 9 7 7 7 6 6 6 5 4 4 3 2 1 1 2 2 3 6 8 10 14 16 16 14 14 15 15 12 12 14 15 15 15 15 15 15 15
3 2 1 7 1 3 4 6 10 4 4 2 6 10 9 7 6 6 7 6 4 3 2 2 2 2 2 2 3 3 4 5 6 8 11 14 14 14 13 12 13 14 13 13 13 12 12 12 12
4 5 2 2 3 4 4 4 5 5 6 2 4 10 9 9 9 8 7 7 5 4 4 4 4 4 5 5 5 5 6 5 6 7 8 9 10 11 12 13 13 12 11 9 9 9 10 11 13
3 2 2 4 3 4 1 5 6 6 6 7 9 10 8 9 9 10 10 6 5 5 4 4 5 5 6 7 7 8 8 8 8 8 9 10 11 12 12 11 10 9 8 8 8 9 10 11 13
2 2 4 3 5 3 1 6 3 7 8 10 12 10 9 11 11 10 7 6 5 3 3 4 6 7 8 8 8 8 8 9 9 9 9 10 10 11 11 10 10 9 8 8 10 11 11 13 14
Wind_Direction
345 350 30 137 57 64 264 246 314 107 118 135 142 156 177 130 165 205 158 160 164 163 164 161 160 163 168 165 164 168 167 170 162 155 140 124 108 96 108 108 99 91 91 95 97 92 96 104 94
344 343 151 111 89 72 266 246 187 204 143 118 109 108 108 141 156 150 151 156 163 164 165 164 166 174 178 171 169 172 179 178 172 158 146 132 111 98 100 123 104 95 94 99 103 95 101 106 94
339 352 183 96 111 179 211 213 159 148 145 108 111 93 117 150 166 156 159 162 163 167 166 167 166 171 171 178 176 182 187 187 182 169 156 141 132 117 110 104 98 96 101 101 104 96 96 101 79
338 163 64 94 215 240 208 202 153 137 215 187 140 83 110 170 173 159 159 164 163 169 169 170 169 172 174 178 181 185 192 199 198 186 171 163 151 140 134 123 112 119 106 98 95 96 89 63 34
340 95 63 87 253 250 246 191 168 144 144 143 155 161 101 137 149 162 161 163 166 170 174 175 179 180 183 185 189 193 203 197 195 193 188 187 180 172 167 148 148 189 92 87 94 83 74 42 333
98 92 71 214 254 264 231 171 160 151 149 153 133 135 138 152 164 167 169 167 170 176 178 182 185 187 191 193 197 206 211 204 193 193 192 199 199 212 210 200 206 203 267 302 292 314 313 305 309
124 96 194 183 261 264 188 170 171 168 159 212 154 129 170 172 162 170 171 170 176 183 188 189 192 193 197 199 205 215 222 204 188 195 190 195 211 226 241 256 263 270 280 289 297 299 294 291 291
131 95 136 228 208 250 186 166 203 171 185 161 163 187 210 183 169 172 175 179 186 190 195 197 197 201 203 206 212 220 228 222 218 224 230 237 239 236 246 262 272 276 286 292 295 299 300 291 289
137 69 176 217 153 239 163 153 164 175 149 172 200 227 233 178 170 176 180 187 194 197 201 202 203 206 211 215 220 224 230 233 237 241 249 255 262 274 272 275 279 282 283 292 298 303 305 303 302
107 132 214 192 177 203 195 187 165 164 159 206 209 226 206 176 177 182 188 191 195 198 199 202 206 210 215 220 225 229 234 240 245 248 252 262 268 273 276 279 288 291 293 292 300 305 308 310 307
157 183 198 213 176 209 214 194 173 141 238 213 210 202 179 178 184 190 195 201 200 201 205 209 211 214 221 227 232 235 237 241 245 251 254 261 266 271 276 282 286 288 289 293 298 302 302 307 311
145 220 187 164 209 175 177 160 181 185 200 235 223 208 178 186 192 194 200 206 208 211 216 221 223 226 228 232 236 241 242 246 249 254 259 264 269 271 276 280 283 282 285 289 294 299 301 301 305
163 189 195 181 132 113 154 175 183 209 216 240 201 192 189 193 198 202 207 212 214 217 217 221 226 233 235 240 241 243 246 248 252 254 258 264 270 276 279 283 284 286 287 292 293 296 299 298 298
192 155 158 217 212 153 173 190 180 202 212 215 199 196 198 201 203 207 213 216 221 224 226 229 233 238 239 242 243 246 248 251 250 250 256 263 269 273 276 280 283 285 288 291 291 292 294 295 297
131 123 58 218 227 217 150 270 227 180 193 197 199 202 204 211 213 223 228 233 235 239 241 240 242 246 247 249 250 252 253 253 253 255 256 262 268 273 276 279 282 288 291 290 291 292 293 294 295
100 58 132 261 169 210 137 253 243 193 196 199 202 209 213 216 223 231 237 244 245 248 249 249 248 250 252 254 256 258 258 257 257 258 259 261 268 274 276 278 279 283 285 287 289 292 292 294 296
7 170 194 284 209 134 137 242 241 201 212 217 217 221 224 227 229 233 238 244 248 249 250 250 250 252 256 260 262 263 263 258 258 260 261 264 272 277 279 281 281 280 280 282 286 287 290 294 299
178 192 216 206 205 150 170 250 266 199 187 230 235 232 233 234 233 238 242 240 241 240 241 242 244 247 251 254 258 260 258 256 257 262 267 272 277 281 282 283 282 281 280 280 282 286 289 289 293
137 137 150 225 356 165 214 264 237 231 255 250 246 248 248 243 242 239 242 243 241 243 241 242 243 245 248 250 252 253 256 261 265 271 276 277 280 280 281 280 281 282 280 281 284 283 282 285 288
120 126 174 321 20 142 55 271 260 257 246 245 247 249 249 250 247 243 236 235 235 240 244 246 249 248 250 250 252 254 258 261 264 266 267 272 277 279 280 280 280 280 280 278 272 281 286 284 286
113 152 170 211 88 68 336 287 268 254 259 255 251 253 255 254 252 242 232 225 228 233 238 244 249 253 253 253 253 254 256 259 260 262 267 273 278 279 277 276 273 272 272 276 275 270 275 280 280
166 186 128 126 96 233 5 271 293 301 284 270 259 256 259 260 259 246 237 237 242 247 252 257 260 259 259 255 254 256 258 259 262 264 266 268 268 271 273 271 268 266 267 275 277 273 266 273 278
196 131 115 88 78 11 341 42 275 353 288 266 316 285 259 247 246 227 225 236 242 246 252 256 258 257 256 253 253 254 256 260 261 259 260 264 263 266 267 271 270 270 271 269 279 271 261 271 276
147 91 59 52 57 335 216 171 264 238 220 355 13 13 92 150 155 153 164 190 226 253 260 262 263 263 261 260 259 259 257 256 258 262 267 266 264 262 262 270 271 270 269 273 277 270 264 273 278
167 127 43 308 208 235 7 254 266 271 236 263 312 250 134 133 140 143 149 164 197 227 260 271 275 273 271 267 264 262 261 260 262 262 262 260 258 257 263 273 267 267 275 275 279 284 276 278 279
173 202 152 195 209 268 341 236 240 238 294 290 253 189 174 163 159 152 148 143 145 147 146 133 104 66 24 346 304 277 272 266 260 255 252 252 250 255 265 263 256 264 271 271 275 277 278 281 284
197 209 138 104 96 34 231 292 300 240 245 303 201 179 182 184 186 170 163 154 149 138 115 78 52 37 9 353 343 333 308 290 273 254 246 245 248 253 255 252 257 264 263 263 267 274 279 286 294
160 173 114 17 131 239 266 272 243 285 268 168 195 206 193 189 180 172 163 151 129 104 79 57 32 9 347 337 328 320 310 297 278 260 247 240 241 244 248 255 257 256 259 263 270 279 290 299 304
151 195 107 124 148 207 273 260 220 246 238 211 217 208 199 178 169 159 152 142 121 105 81 51 28 7 345 334 328 321 314 304 293 279 267 257 253 252 250 249 249 248 249 257 270 282 293 297 299
311 224 156 153 217 243 226 265 238 246 266 229 216 206 188 169 156 153 151 141 121 86 45 15 360 353 347 340 327 312 309 306 298 287 274 262 255 250 247 244 243 248 257 270 283 293 297 298 299